"startDT [UTC]","vpos","CH4 [ppm]","stdev(CH4) [ppm]","CO2 [ppm]","stdev(CO2) [ppm]","H2O_reported [%]","stdev(H2O_reported)","CavityPressure [torr]","CavityTemp [C]","OutletValve","CH4_dry [ppm]","CO2_dry [ppm]","DasTemp [C]","EtalonTemp [C]","WarmBoxTemp [C]","MPVPosition","T_ECpre [C]","T_EC1 [C]","T_EC2 [C]","p_inlet [hPa]","p_in [hPa]","p_out [hPa]","T_inlet [C]","RH_inlet [%]","dwpt_inlet [C]","T_vent [C]","RH_vent [%]","dwpt_vent [C]","flow_vent [l min-1]","flow_inlet [l min-1]","dwpt_sample [C]","T_room [C]"
2013-10-25 00:00:00,3.0,1.87818,0.01054,398.705,0.809,0.0546,0.0703,139.995,45.000,31041.46352,1.88349,399.141,31.170,45.058,45.000,0.00,0.11,-272.57,-272.64,-16,480,1,17.5,10.4,-13.9,17.8,10.8,-13.3,5.73,2.50,-9.1,24.0
2013-10-25 00:01:00,3.0,1.87732,0.00031,397.205,0.055,0.0139,0.0016,140.005,45.000,31011.36139,1.87743,397.301,31.170,45.058,45.000,0.00,0.11,-272.58,-272.64,-15,480,1,17.5,10.3,-14.0,17.8,10.8,-13.4,5.73,2.60,-9.1,24.0
2013-10-25 00:02:00,3.0,1.87726,0.00031,397.162,0.037,0.0144,0.0011,140.002,45.000,31001.13305,1.87758,397.226,31.182,45.058,45.000,0.00,0.11,-272.58,-272.64,-16,480,1,17.5,10.3,-14.1,17.7,10.7,-13.4,5.73,2.64,-9.1,24.1
2013-10-25 00:03:00,3.0,1.87722,0.00029,397.275,0.049,0.0129,0.0014,140.001,45.000,30993.65395,1.87740,397.328,31.170,45.058,45.000,0.00,0.11,-272.58,-272.64,-16,480,1,17.6,10.4,-14.0,17.8,10.8,-13.4,5.73,2.62,-9.1,24.1
2013-10-25 00:04:00,3.0,1.87712,0.00020,397.427,0.032,0.0115,0.0021,140.000,45.000,30990.80513,1.87741,397.478,31.177,45.058,45.000,0.00,0.11,-272.58,-272.64,-16,480,1,17.6,10.3,-14.0,17.8,10.7,-13.4,5.73,2.57,-9.1,24.1
2013-10-25 00:05:00,3.0,1.87684,0.00044,397.528,0.036,0.0076,0.0018,139.998,45.000,30987.69501,1.87697,397.556,31.156,45.058,45.000,0.00,0.11,-272.57,-272.65,-15,480,1,17.6,10.2,-14.1,17.8,10.7,-13.5,5.73,2.54,-9.1,24.2
2013-10-25 00:06:00,3.0,1.87677,0.00016,397.606,0.024,0.0068,0.0028,140.003,45.000,30985.08389,1.87694,397.637,31.185,45.058,45.000,0.00,0.11,-272.58,-272.64,-16,481,1,17.6,10.2,-14.2,17.8,10.6,-13.5,5.73,2.56,-9.1,24.2
2013-10-25 00:07:00,3.0,1.87700,0.00032,397.607,0.013,0.0061,0.0014,139.999,45.000,30981.43219,1.87710,397.636,31.185,45.058,45.000,0.00,0.11,-272.57,-272.64,-16,481,1,17.6,10.1,-14.2,17.8,10.6,-13.5,5.73,2.61,-9.2,24.2
2013-10-25 00:08:00,3.0,1.87732,0.00020,397.634,0.031,0.0045,0.0014,139.999,45.000,30980.44140,1.87734,397.653,31.188,45.058,45.000,0.00,0.11,-272.58,-272.64,-16,481,1,17.6,10.2,-14.2,17.8,10.6,-13.5,5.73,2.64,-9.2,24.2
2013-10-25 00:09:00,3.0,1.87725,0.00018,397.647,0.039,0.0035,0.0015,139.998,45.000,30978.30995,1.87733,397.660,31.188,45.058,45.000,0.00,0.11,-272.58,-272.64,-15,481,1,17.7,10.1,-14.1,17.8,10.6,-13.5,5.73,2.61,-9.1,24.2
2013-10-25 00:10:00,3.0,1.87699,0.00046,397.636,0.035,0.0025,0.0006,140.004,45.000,30980.08935,1.87700,397.651,31.188,45.058,45.000,0.00,0.11,-272.58,-272.64,-15,482,1,17.7,10.1,-14.2,17.8,10.5,-13.6,5.73,2.58,-9.1,24.2
2013-10-25 00:11:00,3.0,1.87721,0.00023,397.660,0.028,0.0034,0.0028,140.003,45.000,30980.23819,1.87732,397.677,31.192,45.058,45.000,0.00,0.11,-272.58,-272.64,-16,482,1,17.7,10.1,-14.2,17.8,10.5,-13.6,5.73,2.54,-9.1,24.3
2013-10-25 00:12:00,3.0,1.87709,0.00018,397.635,0.021,0.0010,0.0015,140.001,45.000,30982.11982,1.87711,397.642,31.192,45.058,45.000,0.00,0.11,-272.58,-272.64,-16,482,1,17.8,10.1,-14.1,17.9,10.5,-13.6,5.73,2.56,-9.1,24.3
2013-10-25 00:13:00,3.0,1.87742,0.00022,397.618,0.025,0.0020,0.0024,140.005,45.000,30983.01233,1.87741,397.628,31.200,45.058,45.000,0.00,0.11,-272.57,-272.64,-16,483,1,17.8,10.0,-14.2,17.9,10.5,-13.6,5.73,2.60,-9.1,24.3
2013-10-25 00:14:00,3.0,1.87717,0.00022,397.590,0.025,0.0027,0.0015,140.006,45.000,30985.67637,1.87728,397.606,31.194,45.058,45.000,0.00,0.11,-272.57,-272.64,-15,483,1,17.9,10.0,-14.1,18.0,10.5,-13.5,5.73,2.63,-9.1,24.3
2013-10-25 00:15:00,3.0,1.87705,0.00032,397.648,0.019,0.0012,0.0015,140.004,45.000,30984.80349,1.87708,397.651,31.239,45.058,45.000,0.00,0.11,-272.58,-272.64,-16,483,1,17.9,10.0,-14.1,18.0,10.5,-13.5,5.73,2.63,-9.1,24.4
2013-10-25 00:16:00,3.0,1.87714,0.00023,397.653,0.025,0.0016,0.0016,139.999,45.000,30982.52624,1.87715,397.655,31.210,45.058,45.000,0.00,0.11,-272.58,-272.64,-16,483,1,17.9,10.0,-14.1,18.0,10.4,-13.5,5.73,2.59,-9.1,24.4
2013-10-25 00:17:00,3.0,1.87741,0.00008,397.656,0.046,0.0012,0.0021,139.995,45.000,30984.03768,1.87740,397.664,31.225,45.058,45.000,0.00,0.11,-272.57,-272.64,-16,484,1,18.0,10.0,-14.1,18.0,10.5,-13.5,5.73,2.55,-9.1,24.4
2013-10-25 00:18:00,3.0,1.87738,0.00029,397.671,0.035,0.0013,0.0021,140.001,45.000,30987.28817,1.87746,397.678,31.232,45.058,45.000,0.00,0.31,-271.11,-271.83,-16,484,1,18.0,10.0,-14.0,18.1,10.5,-13.5,5.42,2.56,-11.8,24.4
2013-10-25 00:19:00,3.0,1.87704,0.00042,397.681,0.011,0.0011,0.0013,140.004,45.000,30989.61175,1.87703,397.682,31.239,45.058,45.000,0.00,0.11,-272.57,-272.64,-16,484,1,18.1,9.9,-14.1,18.1,10.4,-13.6,5.73,2.57,-9.1,24.5
2013-10-25 00:20:00,0.0,1.90274,0.01016,398.267,0.310,0.1918,0.1147,140.012,45.000,31521.25112,1.90200,399.024,31.248,45.058,45.000,0.00,0.11,-272.57,-272.64,-16,566,1,18.1,9.9,-14.1,18.1,10.3,-13.6,5.73,2.59,-9.1,24.5
2013-10-25 00:21:00,0.0,1.90611,0.00015,398.258,0.030,0.2700,0.0027,140.004,45.000,31557.71975,1.91122,399.563,31.250,45.058,45.000,0.00,0.11,-272.58,-272.64,-16,566,1,18.1,9.9,-14.1,18.1,10.3,-13.6,5.73,2.63,-9.1,24.5
2013-10-25 00:22:00,0.0,1.90609,0.00029,398.239,0.037,0.2715,0.0019,140.001,45.000,31566.13973,1.91127,399.551,31.250,45.058,45.000,0.00,0.11,-272.58,-272.64,-16,566,1,18.2,9.9,-14.1,18.2,10.3,-13.6,5.73,2.63,-9.1,24.5
2013-10-25 00:23:00,0.0,1.90572,0.00023,398.197,0.016,0.2743,0.0010,139.998,45.000,31573.76919,1.91088,399.516,31.250,45.058,45.000,0.00,0.11,-272.57,-272.64,-16,566,1,18.2,9.9,-14.1,18.2,10.3,-13.5,5.73,2.59,-9.1,24.5
2013-10-25 00:24:00,0.0,1.90583,0.00032,398.225,0.012,0.2742,0.0013,139.999,45.000,31580.23430,1.91100,399.549,31.250,45.058,45.000,0.00,0.11,-272.58,-272.64,-16,566,1,18.2,9.9,-14.1,18.2,10.3,-13.5,5.73,2.56,-9.1,24.5
2013-10-25 00:25:00,0.0,1.90592,0.00047,398.238,0.023,0.2757,0.0018,139.998,45.000,31588.19875,1.91119,399.566,31.238,45.058,45.000,0.00,0.11,-272.58,-272.64,-16,567,1,18.2,9.9,-14.0,18.2,10.3,-13.5,5.73,2.55,-9.1,24.5
2013-10-25 00:26:00,0.0,1.90562,0.00025,398.183,0.012,0.2748,0.0009,140.002,45.000,31595.60209,1.91082,399.512,31.248,45.058,45.000,0.00,0.11,-272.58,-272.64,-16,567,1,18.2,9.9,-14.0,18.2,10.4,-13.5,5.73,2.57,-9.1,24.5
2013-10-25 00:27:00,0.0,1.90511,0.00035,398.180,0.014,0.2763,0.0014,139.999,45.000,31599.73504,1.91036,399.512,31.250,45.058,45.000,0.00,0.11,-272.58,-272.64,-16,567,1,18.2,9.9,-14.0,18.2,10.4,-13.5,5.73,2.60,-9.1,24.5
2013-10-25 00:28:00,0.0,1.90525,0.00028,398.239,0.029,0.2757,0.0023,139.995,45.000,31601.99985,1.91045,399.570,31.250,45.058,45.000,0.00,0.11,-272.58,-272.64,-16,567,1,18.2,9.9,-14.0,18.2,10.4,-13.5,5.73,2.63,-9.1,24.5
2013-10-25 00:29:00,0.0,1.90544,0.00056,398.254,0.021,0.2754,0.0020,140.000,45.000,31607.93269,1.91065,399.581,31.250,45.058,45.000,0.00,0.11,-272.58,-272.64,-16,567,1,18.2,10.0,-13.9,18.2,10.4,-13.4,5.73,2.63,-9.1,24.5
2013-10-25 00:30:00,0.0,1.90507,0.00020,398.256,0.030,0.2761,0.0021,140.000,45.000,31610.11187,1.91025,399.583,31.250,45.058,45.000,0.00,0.11,-272.57,-272.64,-16,567,1,18.2,10.0,-13.9,18.3,10.4,-13.4,5.73,2.59,-9.1,24.5
2013-10-25 00:31:00,0.0,1.90551,0.00031,398.295,0.030,0.2749,0.0009,140.001,45.000,31612.04385,1.91068,399.619,31.250,45.058,45.000,0.00,0.11,-272.58,-272.64,-16,567,1,18.2,9.9,-14.0,18.3,10.3,-13.5,5.73,2.56,-9.1,24.5
2013-10-25 00:32:00,0.0,1.90503,0.00033,398.312,0.012,0.2757,0.0027,140.004,45.000,31617.20857,1.91030,399.642,31.250,45.058,45.000,0.00,0.11,-272.57,-272.64,-16,567,1,18.2,9.9,-14.0,18.3,10.3,-13.5,5.73,2.56,-9.1,24.5
2013-10-25 00:33:00,0.0,1.90487,0.00040,398.310,0.052,0.2757,0.0010,139.995,45.000,31617.90878,1.91005,399.642,31.250,45.058,45.000,0.00,0.11,-272.58,-272.64,-16,567,1,18.2,9.9,-14.0,18.3,10.3,-13.5,5.73,2.56,-9.1,24.5
2013-10-25 00:34:00,0.0,1.90515,0.00039,398.270,0.018,0.2768,0.0014,140.005,45.000,31621.95230,1.91038,399.605,31.250,45.058,45.000,0.00,0.11,-272.57,-272.64,-16,567,1,18.3,9.9,-14.0,18.3,10.3,-13.5,5.73,2.59,-9.0,24.6
2013-10-25 00:35:00,0.0,1.90497,0.00056,398.249,0.036,0.2777,0.0033,140.010,45.000,31625.58157,1.91026,399.590,31.250,45.058,45.000,0.00,0.11,-272.58,-272.64,-16,568,1,18.2,9.9,-14.0,18.3,10.3,-13.4,5.73,2.62,-9.0,24.6
2013-10-25 00:36:00,0.0,1.90509,0.00044,398.300,0.031,0.2783,0.0017,140.007,45.000,31625.67426,1.91037,399.640,31.250,45.058,45.000,0.00,0.11,-272.58,-272.64,-16,568,1,18.2,10.0,-13.9,18.3,10.4,-13.4,5.73,2.63,-9.1,24.5
2013-10-25 00:37:00,0.0,1.90531,0.00064,398.322,0.014,0.2777,0.0013,139.998,45.000,31620.46389,1.91049,399.661,31.269,45.058,45.000,0.00,0.11,-272.57,-272.63,-16,568,1,18.2,10.0,-13.9,18.3,10.4,-13.4,5.73,2.61,-9.0,24.5
2013-10-25 00:38:00,0.0,1.90447,0.00018,398.332,0.020,0.2777,0.0013,140.001,45.000,31625.07773,1.90974,399.671,31.266,45.058,45.000,0.00,0.11,-272.58,-272.63,-16,567,1,18.2,10.0,-13.9,18.3,10.4,-13.4,5.73,2.57,-9.0,24.5
2013-10-25 00:39:00,0.0,1.90503,0.00013,398.360,0.039,0.2779,0.0017,140.003,45.000,31624.51421,1.91023,399.696,31.257,45.058,45.000,0.00,0.11,-272.58,-272.64,-16,567,1,18.2,10.0,-13.9,18.3,10.4,-13.3,5.73,2.55,-9.0,24.5
2013-10-25 00:40:00,0.0,1.90499,0.00027,398.354,0.035,0.2769,0.0010,139.998,45.000,31621.54504,1.91020,399.692,31.262,45.058,45.000,0.00,0.11,-272.57,-272.64,-16,568,1,18.2,10.0,-14.0,18.3,10.4,-13.4,5.73,2.56,-9.0,24.5
2013-10-25 00:41:00,0.0,1.90490,0.00021,398.364,0.021,0.2764,0.0019,140.005,45.000,31624.87099,1.91020,399.701,31.259,45.058,45.000,0.00,0.11,-272.58,-272.64,-16,568,1,18.1,10.0,-14.0,18.2,10.4,-13.4,5.73,2.59,-9.0,24.5
2013-10-25 00:42:00,0.0,1.90499,0.00020,398.361,0.030,0.2777,0.0010,140.000,45.000,31622.84779,1.91015,399.700,31.251,45.058,45.000,0.00,0.11,-272.58,-272.64,-16,567,1,18.1,10.0,-14.0,18.2,10.4,-13.4,5.73,2.62,-9.0,24.5
2013-10-25 00:43:00,0.0,1.90488,0.00038,398.345,0.027,0.2803,0.0014,140.004,45.000,31622.31375,1.91016,399.699,31.260,45.058,45.000,0.00,0.11,-272.57,-272.63,-16,567,1,18.1,10.1,-13.9,18.2,10.5,-13.3,5.73,2.63,-9.0,24.5
2013-10-25 00:44:00,0.0,1.90487,0.00033,398.351,0.022,0.2787,0.0017,140.003,45.000,31623.83358,1.91021,399.692,31.250,45.058,45.000,0.00,0.11,-272.58,-272.63,-16,567,1,18.1,10.1,-13.9,18.2,10.5,-13.3,5.73,2.61,-9.0,24.4
2013-10-25 00:45:00,0.0,1.90507,0.00030,398.383,0.017,0.2793,0.0009,140.006,45.000,31622.99852,1.91028,399.729,31.250,45.058,45.000,0.00,0.11,-272.58,-272.64,-16,567,1,18.0,10.1,-13.9,18.2,10.5,-13.3,5.73,2.57,-9.0,24.4
2013-10-25 00:46:00,0.0,1.90522,0.00030,398.399,0.022,0.2807,0.0019,139.998,45.000,31620.89651,1.91052,399.755,31.263,45.058,45.000,0.00,0.11,-272.57,-272.64,-16,567,1,18.0,10.1,-13.9,18.2,10.5,-13.3,5.73,2.54,-9.0,24.4
2013-10-25 00:47:00,0.0,1.90492,0.00019,398.380,0.032,0.2801,0.0014,140.005,45.000,31624.12452,1.91030,399.728,31.254,45.058,45.000,0.00,0.11,-272.57,-272.64,-16,567,1,18.0,10.2,-13.9,18.2,10.6,-13.2,5.73,2.56,-9.0,24.4
2013-10-25 00:48:00,0.0,1.90495,0.00029,398.411,0.021,0.2820,0.0015,140.003,45.000,31622.12408,1.91020,399.772,31.258,45.058,45.000,0.00,0.11,-272.58,-272.64,-16,566,1,18.0,10.2,-13.9,18.2,10.6,-13.2,5.73,2.61,-9.0,24.4
2013-10-25 00:49:00,0.0,1.90541,0.00036,398.425,0.031,0.2814,0.0018,140.000,45.000,31621.28811,1.91078,399.785,31.251,45.058,45.000,0.00,0.11,-272.58,-272.64,-16,567,1,18.0,10.2,-13.9,18.1,10.6,-13.2,5.73,2.64,-9.0,24.4
2013-10-25 00:50:00,0.0,1.90534,0.00037,398.402,0.026,0.2818,0.0021,140.000,45.000,31621.24650,1.91060,399.762,31.259,45.058,45.000,0.00,0.11,-272.58,-272.63,-16,567,1,18.0,10.2,-13.9,18.1,10.6,-13.2,5.73,2.62,-9.0,24.4
2013-10-25 00:51:00,0.0,1.90507,0.00045,398.404,0.037,0.2778,0.0016,140.001,45.000,31622.17221,1.91039,399.749,31.253,45.058,45.000,0.00,0.11,-272.58,-272.63,-16,567,1,17.9,10.1,-14.0,18.1,10.6,-13.3,5.73,2.58,-9.0,24.4
2013-10-25 00:52:00,0.0,1.90558,0.00053,398.438,0.023,0.2786,0.0021,140.002,45.000,31622.30778,1.91077,399.779,31.258,45.058,45.000,0.00,0.11,-272.58,-272.64,-16,566,1,17.9,10.1,-14.0,18.1,10.6,-13.3,5.73,2.55,-9.0,24.4
2013-10-25 00:53:00,0.0,1.90539,0.00037,398.481,0.016,0.2776,0.0014,140.005,45.000,31621.05563,1.91064,399.818,31.270,45.058,45.000,0.00,0.11,-272.58,-272.64,-16,566,1,17.9,10.1,-14.0,18.1,10.5,-13.4,5.73,2.56,-9.0,24.4
2013-10-25 00:54:00,0.0,1.90488,0.00056,398.475,0.043,0.2763,0.0023,140.005,45.000,31623.17092,1.91011,399.806,31.263,45.058,45.000,0.00,0.11,-272.58,-272.64,-16,566,1,17.9,10.1,-14.1,18.1,10.5,-13.4,5.73,2.60,-9.0,24.4
2013-10-25 00:55:00,0.0,1.90503,0.00040,398.435,0.025,0.2765,0.0008,140.003,45.000,31623.17584,1.91034,399.777,31.260,45.058,45.000,0.00,0.11,-272.58,-272.64,-16,566,1,17.9,10.0,-14.1,18.1,10.5,-13.5,5.73,2.64,-9.0,24.4
2013-10-25 00:56:00,0.0,1.90544,0.00038,398.444,0.010,0.2773,0.0011,140.004,45.000,31622.72215,1.91058,399.781,31.257,45.058,45.000,0.00,0.11,-272.57,-272.64,-16,566,1,17.9,10.0,-14.1,18.1,10.5,-13.5,5.73,2.63,-9.0,24.4
2013-10-25 00:57:00,0.0,1.90519,0.00016,398.439,0.015,0.2777,0.0014,140.002,45.000,31623.44155,1.91046,399.780,31.277,45.058,45.000,0.00,0.11,-272.57,-272.64,-16,566,1,17.9,10.1,-14.1,18.0,10.5,-13.4,5.73,2.59,-9.1,24.3
2013-10-25 00:58:00,0.0,1.90497,0.00025,398.462,0.031,0.2801,0.0024,139.998,45.000,31620.16776,1.91027,399.808,31.281,45.058,45.000,0.00,0.11,-272.57,-272.64,-16,566,1,17.8,10.1,-14.0,18.0,10.6,-13.3,5.73,2.55,-9.0,24.3
2013-10-25 00:59:00,0.0,1.90509,0.00015,398.486,0.018,0.2789,0.0019,140.003,45.000,31620.50551,1.91038,399.833,31.265,45.058,45.000,0.00,0.11,-272.58,-272.64,-16,566,1,17.8,10.1,-14.0,18.0,10.6,-13.4,5.73,2.55,-9.0,24.3
2013-10-25 01:00:00,0.0,1.90500,0.00017,398.521,0.032,0.2786,0.0018,139.993,45.000,31617.16568,1.91029,399.864,31.250,45.058,45.000,0.00,0.11,-272.57,-272.64,-16,566,1,17.8,10.1,-14.1,18.0,10.6,-13.4,5.73,2.58,-9.0,24.4
2013-10-25 01:01:00,0.0,1.90493,0.00057,398.504,0.050,0.2786,0.0017,139.996,45.000,31618.25575,1.91022,399.844,31.250,45.058,45.000,0.00,0.11,-272.58,-272.64,-16,566,1,17.8,10.1,-14.1,18.0,10.6,-13.4,5.73,2.62,-9.1,24.4
2013-10-25 01:02:00,0.0,1.90516,0.00024,398.531,0.026,0.2787,0.0006,140.009,45.000,31620.72369,1.91037,399.880,31.262,45.058,45.000,0.00,0.11,-272.58,-272.64,-16,566,1,17.8,10.1,-14.0,18.0,10.6,-13.4,5.73,2.64,-9.0,24.3
2013-10-25 01:03:00,0.0,1.90524,0.00022,398.498,0.029,0.2781,0.0019,140.001,45.000,31618.79245,1.91047,399.840,31.298,45.058,45.000,0.00,0.11,-272.58,-272.64,-16,566,1,17.8,10.1,-14.1,18.0,10.6,-13.4,5.73,2.61,-9.0,24.3
2013-10-25 01:04:00,0.0,1.90505,0.00031,398.508,0.027,0.2775,0.0028,139.999,45.000,31617.84657,1.91024,399.848,31.305,45.058,45.000,0.00,0.11,-272.58,-272.64,-16,566,1,17.8,10.1,-14.1,18.0,10.6,-13.5,5.73,2.58,-9.0,24.3
2013-10-25 01:05:00,0.0,1.90561,0.00028,398.530,0.030,0.2775,0.0006,140.001,45.000,31615.35501,1.91086,399.873,31.308,45.058,45.000,0.00,0.11,-272.57,-272.64,-16,566,1,17.7,10.1,-14.1,17.9,10.6,-13.5,5.73,2.55,-9.0,24.3
2013-10-25 01:06:00,0.0,1.90534,0.00044,398.514,0.042,0.2772,0.0009,140.005,45.000,31615.79472,1.91065,399.849,31.301,45.058,45.000,0.00,0.11,-272.58,-272.64,-16,565,1,17.7,10.1,-14.1,17.9,10.6,-13.5,5.73,2.56,-9.1,24.3
2013-10-25 01:07:00,0.0,1.90525,0.00027,398.505,0.025,0.2757,0.0016,140.001,45.000,31614.25385,1.91043,399.840,31.296,45.058,45.000,0.00,0.11,-272.58,-272.63,-16,565,1,17.7,10.1,-14.2,17.9,10.6,-13.5,5.73,2.59,-9.1,24.3
2013-10-25 01:08:00,0.0,1.90542,0.00065,398.501,0.022,0.2747,0.0007,140.006,45.000,31614.86700,1.91064,399.827,31.308,45.058,45.000,0.00,0.11,-272.58,-272.64,-16,565,1,17.7,10.1,-14.2,17.9,10.5,-13.5,5.73,2.63,-9.0,24.3
2013-10-25 01:09:00,0.0,1.90549,0.00015,398.495,0.025,0.2771,0.0012,140.003,45.000,31613.54171,1.91068,399.830,31.312,45.058,45.000,0.00,0.11,-272.58,-272.64,-16,565,1,17.7,10.1,-14.2,17.9,10.6,-13.5,5.73,2.63,-9.0,24.3
2013-10-25 01:10:00,0.0,1.90561,0.00057,398.513,0.011,0.2759,0.0021,139.995,45.000,31609.04071,1.91081,399.848,31.313,45.058,45.000,0.00,0.11,-272.58,-272.64,-16,565,1,17.7,10.1,-14.2,17.8,10.6,-13.5,5.73,2.61,-9.1,24.2
2013-10-25 01:11:00,0.0,1.90547,0.00022,398.542,0.032,0.2758,0.0015,140.004,45.000,31611.78753,1.91068,399.869,31.313,45.058,45.000,0.00,0.11,-272.57,-272.63,-16,565,1,17.7,10.1,-14.2,17.8,10.6,-13.5,5.73,2.57,-9.1,24.2
2013-10-25 01:12:00,0.0,1.90560,0.00015,398.550,0.011,0.2758,0.0015,140.000,45.000,31608.82448,1.91079,399.884,31.315,45.058,45.000,0.00,0.11,-272.58,-272.65,-16,565,1,17.7,10.1,-14.2,17.8,10.6,-13.5,5.73,2.55,-9.1,24.2
2013-10-25 01:13:00,0.0,1.90577,0.00032,398.566,0.035,0.2759,0.0016,140.000,45.000,31610.93128,1.91088,399.898,31.315,45.058,45.000,0.00,0.11,-272.57,-272.64,-15,565,1,17.7,10.1,-14.2,17.9,10.6,-13.5,5.73,2.57,-9.1,24.3
2013-10-25 01:14:00,0.0,1.90536,0.00019,398.512,0.012,0.2757,0.0026,140.000,45.000,31610.54805,1.91069,399.845,31.313,45.058,45.000,0.00,0.11,-272.57,-272.64,-16,565,1,17.7,10.1,-14.2,17.8,10.6,-13.5,5.73,2.60,-9.1,24.2
2013-10-25 01:15:00,0.0,1.90562,0.00053,398.528,0.027,0.2759,0.0013,140.004,45.000,31612.10936,1.91082,399.859,31.313,45.058,45.000,0.00,0.11,-272.58,-272.64,-16,565,1,17.7,10.1,-14.2,17.8,10.6,-13.5,5.73,2.64,-9.1,24.2
2013-10-25 01:16:00,0.0,1.90547,0.00035,398.526,0.025,0.2761,0.0005,139.996,45.000,31609.52329,1.91079,399.859,31.313,45.058,45.000,0.00,0.11,-272.58,-272.64,-16,565,1,17.7,10.1,-14.2,17.8,10.6,-13.5,5.73,2.64,-9.1,24.2
2013-10-25 01:17:00,0.0,1.90531,0.00023,398.541,0.015,0.2770,0.0024,140.001,45.000,31612.34470,1.91046,399.874,31.313,45.058,45.000,0.00,0.11,-272.58,-272.64,-15,565,1,17.7,10.2,-14.1,17.8,10.6,-13.5,5.73,2.60,-9.1,24.2
2013-10-25 01:18:00,0.0,1.90526,0.00035,398.519,0.041,0.2788,0.0022,139.997,45.000,31613.00649,1.91058,399.871,31.313,45.058,45.000,0.00,0.11,-272.58,-272.64,-16,565,1,17.7,10.2,-14.1,17.8,10.7,-13.4,5.73,2.56,-9.0,24.2
2013-10-25 01:19:00,0.0,1.90532,0.00044,398.510,0.025,0.2782,0.0019,140.000,45.000,31613.66127,1.91055,399.854,31.313,45.058,45.000,0.00,0.11,-272.58,-272.64,-16,565,1,17.7,10.2,-14.1,17.8,10.6,-13.4,5.73,2.55,-9.1,24.2
2013-10-25 01:20:00,0.0,1.90535,0.00021,398.493,0.023,0.2756,0.0017,140.002,45.000,31613.18623,1.91054,399.822,31.313,45.058,45.000,0.00,0.11,-272.57,-272.64,-16,565,1,17.7,10.1,-14.2,17.8,10.6,-13.5,5.73,2.58,-9.1,24.2
2013-10-25 01:21:00,0.0,1.90579,0.00031,398.518,0.028,0.2738,0.0014,140.003,45.000,31612.91853,1.91092,399.840,31.323,45.058,45.000,0.00,0.11,-272.58,-272.64,-16,565,1,17.7,10.0,-14.3,17.8,10.5,-13.6,5.73,2.61,-9.1,24.2
2013-10-25 01:22:00,0.0,1.90581,0.00033,398.524,0.035,0.2730,0.0016,140.001,45.000,31611.86968,1.91098,399.840,31.315,45.058,45.000,0.00,0.11,-272.58,-272.64,-15,565,1,17.7,10.0,-14.3,17.8,10.5,-13.7,5.73,2.64,-9.1,24.2
2013-10-25 01:23:00,0.0,1.90593,0.00030,398.522,0.033,0.2727,0.0026,140.001,45.000,31610.60301,1.91109,399.844,31.318,45.058,45.000,0.00,0.11,-272.58,-272.64,-15,565,1,17.7,10.0,-14.3,17.8,10.5,-13.6,5.73,2.63,-9.1,24.2
2013-10-25 01:24:00,0.0,1.90606,0.00026,398.510,0.017,0.2746,0.0022,140.003,45.000,31612.37344,1.91123,399.831,31.313,45.058,45.000,0.00,0.11,-272.57,-272.64,-16,565,1,17.7,10.0,-14.3,17.8,10.5,-13.6,5.73,2.59,-9.1,24.2
2013-10-25 01:25:00,0.0,1.90588,0.00031,398.504,0.020,0.2734,0.0018,140.007,45.000,31613.60563,1.91100,399.825,31.313,45.058,45.000,0.00,0.11,-272.58,-272.64,-16,565,1,17.7,10.0,-14.3,17.8,10.5,-13.7,5.73,2.56,-9.1,24.2
2013-10-25 01:26:00,0.0,1.90566,0.00034,398.514,0.046,0.2730,0.0011,139.998,45.000,31612.03535,1.91090,399.828,31.318,45.058,45.000,0.00,0.11,-272.58,-272.64,-16,565,1,17.7,10.0,-14.3,17.8,10.4,-13.7,5.73,2.56,-9.1,24.2
2013-10-25 01:27:00,0.0,1.90598,0.00045,398.480,0.012,0.2728,0.0021,140.003,45.000,31613.94968,1.91107,399.803,31.330,45.058,45.000,0.00,0.11,-272.57,-272.64,-15,565,1,17.7,10.0,-14.3,17.8,10.4,-13.7,5.73,2.59,-9.1,24.2
2013-10-25 01:28:00,0.0,1.90595,0.00022,398.483,0.031,0.2720,0.0028,139.998,45.000,31612.85087,1.91105,399.794,31.334,45.058,45.000,0.00,0.11,-272.57,-272.64,-16,565,1,17.7,10.0,-14.4,17.8,10.4,-13.8,5.73,2.63,-9.1,24.2
2013-10-25 01:29:00,0.0,1.90622,0.00029,398.510,0.020,0.2721,0.0024,139.998,45.000,31612.05741,1.91136,399.823,31.341,45.058,45.000,0.00,0.11,-272.58,-272.64,-16,565,1,17.7,10.0,-14.4,17.8,10.4,-13.8,5.73,2.64,-9.1,24.2
2013-10-25 01:30:00,0.0,1.90611,0.00038,398.495,0.028,0.2723,0.0012,140.003,45.000,31614.53824,1.91122,399.811,31.364,45.058,45.000,0.00,0.11,-272.58,-272.64,-16,565,1,17.7,10.0,-14.4,17.8,10.4,-13.8,5.73,2.61,-9.1,24.2
2013-10-25 01:31:00,0.0,1.90618,0.00044,398.476,0.026,0.2721,0.0007,140.001,45.000,31613.92202,1.91137,399.790,31.355,45.058,45.000,0.00,0.11,-272.58,-272.64,-16,565,1,17.7,10.0,-14.3,17.8,10.4,-13.7,5.73,2.57,-9.1,24.2
2013-10-25 01:32:00,0.0,1.90652,0.00038,398.457,0.013,0.2702,0.0016,139.997,45.000,31612.20641,1.91156,399.761,31.358,45.058,45.000,0.00,0.11,-272.58,-272.64,-15,565,1,17.7,10.0,-14.4,17.8,10.4,-13.8,5.73,2.55,-9.1,24.1
2013-10-25 01:33:00,0.0,1.90669,0.00020,398.460,0.030,0.2683,0.0009,140.005,45.000,31613.72062,1.91176,399.756,31.368,45.058,45.000,0.00,0.11,-272.58,-272.64,-16,565,1,17.7,9.9,-14.5,17.8,10.3,-13.9,5.73,2.57,-9.1,24.2
2013-10-25 01:34:00,0.0,1.90651,0.00024,398.465,0.017,0.2665,0.0018,139.997,45.000,31610.58728,1.91160,399.753,31.355,45.058,45.000,0.00,0.11,-272.58,-272.64,-16,565,1,17.7,9.8,-14.6,17.8,10.2,-14.0,5.73,2.60,-9.1,24.2
2013-10-25 01:35:00,0.0,1.90664,0.00045,398.472,0.033,0.2642,0.0015,140.006,45.000,31614.78255,1.91163,399.746,31.361,45.058,45.000,0.00,0.11,-272.58,-272.64,-16,565,1,17.7,9.7,-14.7,17.8,10.1,-14.1,5.73,2.64,-9.1,24.2
2013-10-25 01:36:00,0.0,1.90656,0.00031,398.460,0.034,0.2653,0.0016,139.999,45.000,31612.23266,1.91152,399.738,31.375,45.058,45.000,0.00,0.11,-272.58,-272.64,-15,565,1,17.7,9.7,-14.6,17.8,10.1,-14.1,5.73,2.63,-9.0,24.2
2013-10-25 01:37:00,0.0,1.90662,0.00026,398.501,0.032,0.2661,0.0023,140.003,45.000,31614.81755,1.91163,399.788,31.377,45.058,45.000,0.00,0.11,-272.58,-272.63,-15,565,1,17.7,9.8,-14.6,17.8,10.2,-14.1,5.73,2.60,-9.1,24.2
2013-10-25 01:38:00,0.0,1.90646,0.00023,398.470,0.019,0.2660,0.0014,140.002,45.000,31614.40522,1.91155,399.756,31.375,45.058,45.000,0.00,0.11,-272.57,-272.64,-16,565,1,17.7,9.8,-14.6,17.8,10.2,-14.0,5.73,2.55,-9.0,24.1
2013-10-25 01:39:00,0.0,1.90658,0.00048,398.524,0.017,0.2663,0.0012,140.003,45.000,31614.23980,1.91147,399.803,31.387,45.058,45.000,0.00,0.11,-272.58,-272.64,-16,565,1,17.7,9.8,-14.6,17.8,10.2,-14.1,5.73,2.55,-9.1,24.1
2013-10-25 01:40:00,0.0,1.90709,0.00046,398.513,0.021,0.2661,0.0021,140.002,45.000,31613.79479,1.91221,399.797,31.376,45.058,45.000,0.00,0.11,-272.58,-272.64,-16,565,1,17.6,9.8,-14.6,17.8,10.2,-14.0,5.73,2.58,-9.1,24.2
2013-10-25 01:41:00,0.0,1.90693,0.00029,398.475,0.013,0.2654,0.0017,139.996,45.000,31610.90756,1.91188,399.760,31.382,45.058,45.000,0.00,0.11,-272.57,-272.64,-15,565,1,17.6,9.8,-14.6,17.8,10.2,-14.0,5.73,2.63,-9.1,24.1
2013-10-25 01:42:00,0.0,1.90671,0.00060,398.467,0.028,0.2663,0.0010,140.004,45.000,31613.95425,1.91184,399.752,31.375,45.058,45.000,0.00,0.11,-272.58,-272.64,-15,565,1,17.6,9.8,-14.6,17.8,10.2,-14.0,5.73,2.64,-9.1,24.1
2013-10-25 01:43:00,0.0,1.90668,0.00030,398.465,0.011,0.2648,0.0007,140.001,45.000,31614.47049,1.91170,399.744,31.375,45.058,45.000,0.00,0.11,-272.58,-272.64,-16,565,1,17.6,9.8,-14.7,17.8,10.2,-14.1,5.73,2.62,-9.1,24.1
2013-10-25 01:44:00,0.0,1.90657,0.00025,398.470,0.041,0.2633,0.0022,140.008,45.000,31618.19491,1.91155,399.735,31.375,45.058,45.000,0.00,0.11,-272.58,-272.64,-16,565,1,17.6,9.7,-14.7,17.8,10.1,-14.1,5.73,2.58,-9.1,24.2
2013-10-25 01:45:00,0.0,1.90675,0.00049,398.417,0.032,0.2652,0.0017,139.999,45.000,31612.92795,1.91163,399.706,31.375,45.058,45.000,0.00,0.11,-272.57,-272.64,-16,565,1,17.6,9.7,-14.7,17.8,10.1,-14.1,5.73,2.55,-9.1,24.1